Home > Weather > Worcester > Past weeks

Flag for USA Past Weather in Worcester, Massachusetts, USA — Yesterday and Last 2 Weeks

Now
77 °F

Sunny.


Feels Like: 79 °F
Forecast: 67 / 90 °F
Wind: N/A

Location: Worcester Regional Airport

Current Time: May 27, 2016 at 10:06:19 PM

Latest Report: May 27, 2016 at 7:54 PM


Visibility: 10 mi

Pressure: 30.04 "Hg

Humidity: 61%

Dew Point: 63 °F

Location of WorcesterLocation

Past Weather in Worcester — Graph

°F

Worcester Temperature Yesterday

Maximum temperature yesterday: 84 °F (at 2:54 PM)
Minimum temperature yesterday: 63 °F (at 5:54 AM)
Average temperature yesterday: 74 °F

High & Low Weather Summary for the Past Weeks

 TemperatureHumidityPressure
High84 °F (May 26, 2:54 PM)97% (May 20, 1:54 AM)30.25 "Hg (May 20, 1:54 AM)
Low35 °F (May 16, 4:54 AM)22% (May 25, 2:54 PM)29.53 "Hg (May 15, 2:03 AM)
Average60 °F57%29.96 "Hg
* Reported May 12 7:54 PM — May 27 7:54 PM, Worcester, Weather by CustomWeather, © 2016

Note: Actual official high and low records may vary slightly from our data, if they occured in-between our weather recording intervals... More about our weather records

Advertising

Worcester Weather History for the Previous 24 Hours

Scroll right to see more
 ConditionsComfort  
Time TempWeatherWind HumidityBarometerVisibility
7:54 PM
Fri, May 27
77 °FSunny.N/A61%30.04 "Hg10 mi
6:54 PM80 °FSunny.14 mph54%30.04 "Hg10 mi
5:54 PM81 °FSunny.13 mph51%30.03 "Hg10 mi
4:54 PM83 °FBroken clouds.16 mph48%30.03 "Hg10 mi
3:54 PM82 °FBroken clouds.9 mph51%30.03 "Hg10 mi
2:54 PM82 °FPassing clouds.8 mph49%30.05 "Hg10 mi
1:54 PM79 °FSunny.6 mph54%30.07 "Hg10 mi
12:54 PM77 °FSunny.8 mph56%30.08 "Hg10 mi
11:54 AM74 °FPassing clouds.8 mph62%30.09 "Hg10 mi
10:54 AM71 °FSunny.6 mph63%30.10 "Hg10 mi
9:54 AM68 °FSunny.8 mph68%30.10 "Hg10 mi
8:54 AM65 °FSunny.3 mph73%30.11 "Hg10 mi
7:54 AM61 °FSunny.5 mph81%30.11 "Hg10 mi
6:54 AM59 °FPassing clouds.No wind87%30.10 "Hg10 mi
5:54 AM59 °FPassing clouds.6 mph87%30.10 "Hg9 mi
4:54 AM60 °FClear.3 mph90%30.10 "Hg10 mi
3:54 AM63 °FClear.5 mph84%30.09 "Hg10 mi
2:54 AM63 °FClear.No wind81%30.09 "Hg10 mi
1:54 AM66 °FClear.No wind73%30.09 "Hg10 mi
12:54 AM66 °FClear.No wind75%30.08 "Hg10 mi
11:54 PM
Thu, May 26
70 °FClear.No wind59%30.09 "Hg10 mi
10:54 PM72 °FPassing clouds.No wind53%30.09 "Hg10 mi
Weather by CustomWeather, © 2016

See weather overviewHow to use our weather pages